Location: Bemmer
(51.5498°N, 5.6249°E)
Time: 18:02:26
(UTC+00:00)

NOSS 3-3 (C) - Pass Details

Date: 03 March 2021
Orbit: 813 x 1399 km, 63.4° (Epoch: 13 April)

Event Time Altitude Azimuth Distance (km) Brightness Sun altitude
Rises 20:06:52 0° 314° (NW) 3,898 8.3 -25.9°
Reaches altitude 10° 20:09:23 10° 314° (NW) 3,018 7.5 -26.3°
Maximum altitude 20:16:45 88° 226° (SW) 1,255 4.4 -27.3°
Enters shadow 20:18:47 56° 139° (SE) 1,496 4.5 -27.6°
